Location: *
(51.1248°S, 108.4023°W)
Time: 01:32:41
(UTC+00:00)

Cosmos 1656 - Pass Details

Date: 01 November 2021
Orbit: 799 x 848 km, 71.1° (Epoch: 30 November)

Event Time Altitude Azimuth Distance (km) Brightness Sun altitude
Exits shadow 07:50:09 10° 58° (ENE) 2,500 6.0 -23.3°
Reaches altitude 10° 07:50:18 10° 60° (ENE) 2,476 6.0 -23.3°
Maximum altitude 07:52:43 13° 85° (E) 2,286 6.0 -23.2°
Drops below altitude 10° 07:55:09 10° 110° (ESE) 2,498 6.6 -23.1°
Sets 07:59:04 0° 137° (SE) 3,449 7.9 -23.0°
